SCATSAT 1 (41790 NORAD) Tracking and Keplerian Element Data

This shows tracking and keplerian element data for the satellite.

Feedback or suggestion? Click here.




ElementValue
Catalog41790
NameSCATSAT 1
Epoch Orbit12742
Epoch Day53.10207929
Epoch Year2019
RAAN100.8899
Inclination98.2265
Eccentricity0.0019202
Argument of Perigee47.331
Mean Anonmoly312.9499
Mean Motion14.50890473
Decay Rate5E-08
L11 41790U 16059H 19053.10207929 .00000005 00000-0 12420-4 0 9998
L22 41790 98.2265 100.8899 0019202 47.3310 312.9499 14.50890473127426

Live tracking and technical data element details for SCATSAT 1 (NORAD 41790). SCATSAT 1 can be tracked NOW for your location showing map with azimuth and elevation plus other details from your city location.

Track the satellite on the map from your city or location and see movement details for azimuth, elevation, latitude, longitude, range, height, and movement on the map or in text.







IsCatalogInMostPopularTable: catalog: 41790, numindb: 168
Update: records affected: 1



GetName: 41790 SCATSAT 1

Hit Count: updated at: Fri, 22 Feb 2019 22:08:28 GMT